Location: Unspecified
(0.0000°N, 0.0000°E)
Time: 00:16:38
(UTC+00:00)

Vanguard 2 Rocket - Pass Details

Date: 14 December 2018
Orbit: 554 x 3327 km, 32.9° (Epoch: 18 January)

Event Time Altitude Azimuth Distance (km) Brightness Sun altitude
Rises 16:43:17 0° 276° (W) 5,822 12.1 16.4°
Reaches altitude 10° 16:47:10 10° 267° (W) 5,163 12.3 15.5°
Maximum altitude 17:01:41 37° 206° (SSW) 4,238 11.1 12.2°
Drops below altitude 10° 17:19:34 10° 145° (SE) 6,225 11.1 8.1°
Sets 17:25:02 0° 137° (SE) 7,089 11.2 6.8°
